Weather History for Manistique, MI

Change the Weather History Date:

Thursday, November 8, 2012

  Actual Average Record
Temperature  
Mean Temperature 42 °F -  
Max Temperature 44 °F 43 °F 58 °F (1983)
Min Temperature 39 °F 27 °F 11 °F (1991)
Degree Days  
Heating Degree Days 24    
Moisture  
Dew Point 36 °F    
Average Humidity 77    
Maximum Humidity 87    
Minimum Humidity 66    
Precipitation  
Precipitation 0.00 in - - ()
Sea Level Pressure  
Sea Level Pressure 30.07 in    
Wind  
Wind Speed 5 mph (SW)    
Max Wind Speed 17 mph    
Max Gust Speed 26 mph    
Visibility 10 miles    
Events      
Averages and records for this station are not official NWS values.
T = Trace of Precipitation, MM = Missing Value Source: NWS Daily Summary

Daily Weather History Graph

Daily Weather History Graph

Search for Another Location

Airport:

Trip Planner

Search our weather history database for the weather conditions in past years. The results will help you decide how hot, cold, wet, or windy it might be!

Date:

Astronomy

Nov. 08, 2012 Rise Set
Actual Time 7:35 AM EST 5:20 PM EST
Civil Twilight 7:04 AM EST 5:52 PM EST
Nautical Twilight 6:28 AM EST 6:28 PM EST
Astronomical Twilight 5:53 AM EST 7:03 PM EST
Moon 1:11 AM EST (11/8) 2:17 PM EST (11/8)
Length of Visible Light 10h 48m
Length of Day
9h 44m
Waning Crescent, 33% of the Moon is Illuminated
Nov 8
Waning Crescent
Nov 13
New
Nov 20
First Quarter
Nov 28
Full
Dec 6
Last Quarter

Hourly Weather History & Observations

Time (EST) Temp. Windchill Dew Point Humidity Pressure Visibility Wind Dir Wind Speed Gust Speed Precip Events Conditions
12:15 AM 44.6 °F 41.4 °F 33.8 °F 66% 30.11 in 10.0 mi South 5.8 mph - N/A   Overcast
12:34 AM 41.0 °F 37.1 °F 33.8 °F 76% 30.12 in 10.0 mi WNW 5.8 mph - N/A   Overcast
12:55 AM 39.2 °F 37.0 °F 33.8 °F 81% 30.12 in 10.0 mi WSW 3.5 mph - N/A   Overcast
1:14 AM 39.2 °F - 35.6 °F 87% 30.12 in 10.0 mi Calm Calm - N/A   Overcast
1:35 AM 39.2 °F - 35.6 °F 87% 30.11 in 10.0 mi Calm Calm - N/A   Overcast
1:55 AM 39.2 °F - 35.6 °F 87% 30.11 in 10.0 mi Calm Calm - N/A   Light Drizzle
2:14 AM 41.0 °F - 35.6 °F 81% 30.12 in 10.0 mi Calm Calm - N/A   Overcast
2:35 AM 41.0 °F 39.0 °F 37.4 °F 87% 30.12 in 10.0 mi SW 3.5 mph - N/A   Light Drizzle
2:55 AM 41.0 °F - 37.4 °F 87% 30.11 in 10.0 mi Calm Calm - N/A   Overcast
3:14 AM 42.8 °F 41.1 °F 37.4 °F 81% 30.12 in 10.0 mi WSW 3.5 mph - N/A   Overcast
3:35 AM 42.8 °F - 37.4 °F 81% 30.12 in 10.0 mi Calm Calm - N/A   Overcast
3:54 AM 42.8 °F - 37.4 °F 81% 30.12 in 10.0 mi Calm Calm - N/A   Overcast
4:15 AM 42.8 °F - 37.4 °F 81% 30.12 in 10.0 mi Calm Calm - N/A   Overcast
4:34 AM 41.0 °F - 35.6 °F 81% 30.12 in 10.0 mi Calm Calm - N/A   Overcast
4:55 AM 41.0 °F - 35.6 °F 81% 30.12 in 10.0 mi Calm Calm - N/A   Overcast
5:14 AM 41.0 °F - 35.6 °F 81% 30.12 in 10.0 mi Calm Calm - N/A   Overcast
5:35 AM 39.2 °F 37.0 °F 35.6 °F 87% 30.12 in 10.0 mi West 3.5 mph - N/A   Overcast
6:14 AM 39.2 °F - 35.6 °F 87% 30.12 in 10.0 mi Calm Calm - N/A   Overcast
6:35 AM 39.2 °F - 35.6 °F 87% 30.11 in 10.0 mi Calm Calm - N/A   Overcast
6:54 AM 39.2 °F - 35.6 °F 87% 30.11 in 10.0 mi Calm Calm - N/A   Overcast
7:14 AM 39.2 °F - 35.6 °F 87% 30.12 in 10.0 mi Calm Calm - N/A   Overcast
7:54 AM 39.2 °F 37.0 °F 35.6 °F 87% 30.12 in 10.0 mi West 3.5 mph - N/A   Overcast
8:15 AM 39.2 °F 37.0 °F 35.6 °F 87% 30.13 in 10.0 mi West 3.5 mph - N/A   Overcast
8:34 AM 39.2 °F 37.0 °F 35.6 °F 87% 30.13 in 10.0 mi WSW 3.5 mph - N/A   Overcast
8:55 AM 39.2 °F 37.0 °F 35.6 °F 87% 30.12 in 10.0 mi WSW 3.5 mph - N/A   Overcast
9:15 AM 41.0 °F 39.0 °F 35.6 °F 81% 30.12 in 10.0 mi SW 3.5 mph - N/A   Mostly Cloudy
9:34 AM 42.8 °F 38.6 °F 37.4 °F 81% 30.12 in 10.0 mi SW 6.9 mph - N/A   Scattered Clouds
9:55 AM 42.8 °F 39.3 °F 37.4 °F 81% 30.12 in 10.0 mi SW 5.8 mph - N/A   Mostly Cloudy
10:14 AM 42.8 °F 38.0 °F 37.4 °F 81% 30.12 in 10.0 mi SSW 8.1 mph - N/A   Overcast
10:35 AM 42.8 °F 38.0 °F 35.6 °F 76% 30.12 in 10.0 mi SW 8.1 mph - N/A   Overcast
10:55 AM 42.8 °F 40.1 °F 35.6 °F 76% 30.12 in 10.0 mi WSW 4.6 mph - N/A   Overcast
11:35 AM 44.6 °F 38.8 °F 35.6 °F 71% 30.11 in 10.0 mi SSW 11.5 mph - N/A   Scattered Clouds
11:54 AM 44.6 °F 42.2 °F 35.6 °F 71% 30.10 in 10.0 mi SW 4.6 mph - N/A   Mostly Cloudy
12:14 PM 44.6 °F 40.7 °F 35.6 °F 71% 30.09 in 10.0 mi SW 6.9 mph - N/A   Overcast
12:35 PM 44.6 °F 40.2 °F 35.6 °F 71% 30.08 in 10.0 mi SSW 8.1 mph - N/A   Mostly Cloudy
12:54 PM 44.6 °F 39.7 °F 35.6 °F 71% 30.07 in 10.0 mi SSW 9.2 mph - N/A   Overcast
1:15 PM 44.6 °F 40.7 °F 33.8 °F 66% 30.07 in 10.0 mi SW 6.9 mph - N/A   Mostly Cloudy
1:34 PM 44.6 °F 38.8 °F 33.8 °F 66% 30.07 in 10.0 mi SW 11.5 mph - N/A   Overcast
1:54 PM 44.6 °F 38.8 °F 33.8 °F 66% 30.06 in 10.0 mi SW 11.5 mph 16.1 mph N/A   Overcast
2:15 PM 44.6 °F 39.2 °F 33.8 °F 66% 30.06 in 10.0 mi SSW 10.4 mph - N/A   Overcast
2:34 PM 44.6 °F 38.8 °F 33.8 °F 66% 30.05 in 10.0 mi SSW 11.5 mph 18.4 mph N/A   Overcast
2:55 PM 44.6 °F 39.2 °F 33.8 °F 66% 30.04 in 10.0 mi SSW 10.4 mph 18.4 mph N/A   Mostly Cloudy
3:15 PM 44.6 °F 38.8 °F 33.8 °F 66% 30.03 in 10.0 mi SSW 11.5 mph 16.1 mph N/A   Mostly Cloudy
3:34 PM 44.6 °F 38.4 °F 33.8 °F 66% 30.02 in 10.0 mi SSW 12.7 mph 16.1 mph N/A   Scattered Clouds
3:55 PM 44.6 °F 38.8 °F 33.8 °F 66% 30.01 in 10.0 mi SSW 11.5 mph 17.3 mph N/A   Scattered Clouds
4:14 PM 44.6 °F 38.1 °F 33.8 °F 66% 30.01 in 10.0 mi SSW 13.8 mph 17.3 mph N/A   Scattered Clouds
4:34 PM 44.6 °F 38.1 °F 35.6 °F 71% 30.01 in 10.0 mi SSW 13.8 mph - N/A   Mostly Cloudy
4:55 PM 44.6 °F 37.4 °F 35.6 °F 71% 30.01 in 10.0 mi SSW 16.1 mph 24.2 mph N/A   Mostly Cloudy
5:14 PM 44.6 °F 37.2 °F 35.6 °F 71% 30.01 in 10.0 mi SSW 17.3 mph 24.2 mph N/A   Mostly Cloudy
5:35 PM 44.6 °F 37.4 °F 35.6 °F 71% 30.02 in 10.0 mi SSW 16.1 mph 26.5 mph N/A   Overcast
5:55 PM 44.6 °F 39.2 °F 35.6 °F 71% 30.01 in 10.0 mi SSW 10.4 mph 20.7 mph N/A   Overcast
6:14 PM 44.6 °F 38.4 °F 35.6 °F 71% 30.01 in 10.0 mi SSW 12.7 mph 21.9 mph N/A   Overcast
6:35 PM 44.6 °F 37.8 °F 35.6 °F 71% 30.02 in 10.0 mi SSW 15.0 mph 21.9 mph N/A   Overcast
6:54 PM 44.6 °F 39.7 °F 35.6 °F 71% 30.02 in 10.0 mi SW 9.2 mph 19.6 mph N/A   Mostly Cloudy
7:14 PM 44.6 °F 37.4 °F 37.4 °F 76% 30.00 in 10.0 mi SSW 16.1 mph 19.6 mph N/A   Mostly Cloudy
7:35 PM 44.6 °F 37.2 °F 37.4 °F 76% 30.00 in 10.0 mi SSW 17.3 mph 25.3 mph N/A   Overcast
7:54 PM 44.6 °F 40.7 °F 37.4 °F 76% 30.02 in 10.0 mi WSW 6.9 mph 19.6 mph N/A   Overcast
8:15 PM 44.6 °F 40.2 °F 35.6 °F 71% 30.03 in 10.0 mi WSW 8.1 mph - N/A   Overcast
8:34 PM 42.8 °F 38.6 °F 35.6 °F 76% 30.03 in 10.0 mi SW 6.9 mph - N/A   Overcast
8:54 PM 42.8 °F 39.3 °F 35.6 °F 76% 30.03 in 10.0 mi SW 5.8 mph - N/A   Scattered Clouds
9:15 PM 42.8 °F 38.6 °F 35.6 °F 76% 30.03 in 10.0 mi SW 6.9 mph - N/A   Clear
9:34 PM 42.8 °F 38.6 °F 35.6 °F 76% 30.03 in 10.0 mi SW 6.9 mph - N/A   Clear
9:55 PM 42.8 °F 38.0 °F 35.6 °F 76% 30.03 in 10.0 mi SW 8.1 mph - N/A   Clear
10:15 PM 42.8 °F 39.3 °F 35.6 °F 76% 30.03 in 10.0 mi SW 5.8 mph - N/A   Clear
10:34 PM 41.0 °F 39.0 °F 35.6 °F 81% 30.03 in 10.0 mi SW 3.5 mph - N/A   Scattered Clouds
10:55 PM 41.0 °F 37.1 °F 35.6 °F 81% 30.03 in 10.0 mi WSW 5.8 mph - N/A   Mostly Cloudy
11:14 PM 42.8 °F 39.3 °F 37.4 °F 81% 30.03 in 10.0 mi WSW 5.8 mph - N/A   Overcast
11:35 PM 42.8 °F 39.3 °F 37.4 °F 81% 30.03 in 10.0 mi WSW 5.8 mph - N/A   Overcast
11:54 PM 42.8 °F 40.1 °F 37.4 °F 81% 30.03 in 7.0 mi SW 4.6 mph - N/A   Overcast